모두
Bronzewing Airport (Lake Darlot Western Australia) YBWG 기상
There is no TAF data available at YBWG or any nearby airports.
There is no METAR data available at YBWG. Showing METAR data for YMNE (30 mi 서).
최근 WME METAR 이력(YBWG에 대한 데이터 없음)
| Date | Time (AWST) | Flight Rules | Wind Dir. | Speed | Type | Height AGL (ft) | Visibility | Temp (°C) | Temp (°F) | Dew Point (°C) | Dew Point (°F) | Rel. Humid. | Pressure | Density Altitude | Remarks |
|---|---|---|---|---|---|---|---|---|---|---|---|---|---|---|---|
| 09-5월 | 05:00 | VFR | 110° | 7 kt | 10000 meters | 8° | 46° | 3° | 37° | 71% | 1027 mb | 782 ft | |||
| 09-5월 | 04:00 | VFR | 120° | 7 kt | 10000 meters | 8° | 46° | 2° | 35° | 66% | 1027 mb | 782 ft | |||
| 09-5월 | 03:00 | VFR | 110° | 7 kt | 10000 meters | 8° | 46° | 2° | 35° | 66% | 1027 mb | 782 ft | |||
| 09-5월 | 02:00 | VFR | 110° | 6 kt | 10000 meters | 10° | 50° | 2° | 35° | 57% | 1027 mb | 1,022 ft | |||
| 09-5월 | 01:00 | VFR | 110° | 7 kt | 10000 meters | 12° | 53° | 2° | 35° | 50% | 1027 mb | 1,262 ft | |||
| 09-5월 | 00:00 | VFR | 100° | 9 kt | 10000 meters | 13° | 55° | 2° | 35° | 47% | 1027 mb | 1,382 ft | |||
| 08-5월 | 23:00 | VFR | 110° | 9 kt | 10000 meters | 13° | 55° | 2° | 35° | 47% | 1027 mb | 1,382 ft | |||
| 08-5월 | 22:00 | VFR | 110° | 8 kt | 10000 meters | 13° | 55° | 1° | 33° | 44% | 1027 mb | 1,382 ft | |||
| 08-5월 | 21:00 | VFR | 110° | 9 kt | 10000 meters | 15° | 59° | 1° | 33° | 39% | 1027 mb | 1,622 ft | |||
| 08-5월 | 20:00 | VFR | 130° | 7 kt | 10000 meters | 15° | 59° | 1° | 33° | 39% | 1027 mb | 1,622 ft | |||
| 08-5월 | 19:00 | VFR | 120° | 8 kt | 10000 meters | 16° | 60° | 1° | 33° | 36% | 1026 mb | 1,772 ft | |||
| 08-5월 | 18:00 | VFR | 130° | 10 kt | 10000 meters | 18° | 64° | 3° | 37° | 37% | 1026 mb | 2,012 ft | |||
| 08-5월 | 17:00 | VFR | 110° | 13 kt | 10000 meters | 19° | 66° | 2° | 35° | 32% | 1025 mb | 2,161 ft | |||
| 08-5월 | 16:00 | VFR | 120° | 13 kt | 10000 meters | 20° | 68° | 3° | 37° | 32% | 1025 mb | 2,281 ft | |||
| 08-5월 | 15:00 | VFR | 120° | 13 kt | 10000 meters | 20° | 68° | 4° | 39° | 35% | 1025 mb | 2,281 ft | |||
| 08-5월 | 14:00 | VFR | 90° | 12 kt | 10000 meters | 20° | 68° | 3° | 37° | 32% | 1025 mb | 2,281 ft | |||
| 08-5월 | 13:00 | VFR | 70° | 11 kt | 10000 meters | 20° | 68° | 4° | 39° | 35% | 1026 mb | 2,252 ft | |||
| 08-5월 | 12:00 | VFR | 70° | 12 kt | 10000 meters | 19° | 66° | 4° | 39° | 37% | 1027 mb | 2,102 ft | |||
| 08-5월 | 11:00 | VFR | 80° | 11 kt | 10000 meters | 18° | 64° | 5° | 41° | 42% | 1028 mb | 1,953 ft | |||
| 08-5월 | 10:00 | VFR | 70° | 14 kt | 10000 meters | 16° | 60° | 6° | 42° | 51% | 1029 mb | 1,683 ft | |||
| 08-5월 | 09:00 | VFR | 80° | 14 kt | 10000 meters | 14° | 57° | 6° | 42° | 58% | 1029 mb | 1,443 ft | |||
| 08-5월 | 08:00 | VFR | 90° | 13 kt | 10000 meters | 13° | 55° | 6° | 42° | 62% | 1029 mb | 1,323 ft | |||
| 08-5월 | 07:00 | VFR | 110° | 8 kt | 10000 meters | 10° | 50° | 6° | 42° | 76% | 1029 mb | 963 ft | |||
| 08-5월 | 06:00 | VFR | 110° | 8 kt | 10000 meters | 9° | 48° | 5° | 41° | 76% | 1029 mb | 843 ft |
로그인
| 귀하의 브라우저는 지원되지 않습니다.. 브라우저를 업그레이드하세요 |
